TimeEDT,TemperatureF,Dew PointF,Humidity,Sea Level PressureIn,VisibilityMPH,Wind Direction,Wind SpeedMPH,Gust SpeedMPH,PrecipitationIn,Events,Conditions,WindDirDegrees,DateUTC
12:15 AM,-9999,-9999,N/A,30.02,7.0,Calm,Calm,-,N/A,,Clear,0,2013-08-05 04:15:00
12:35 AM,-9999,-9999,N/A,30.02,7.0,Calm,Calm,-,N/A,,Clear,0,2013-08-05 04:35:00
12:55 AM,-9999,-9999,N/A,30.02,7.0,Calm,Calm,-,N/A,,Clear,0,2013-08-05 04:55:00
1:15 AM,-9999,-9999,N/A,30.01,7.0,Calm,Calm,-,N/A,,Clear,0,2013-08-05 05:15:00
1:35 AM,-9999,-9999,N/A,30.01,7.0,Calm,Calm,-,N/A,,Clear,0,2013-08-05 05:35:00
1:55 AM,-9999,-9999,N/A,30.01,10.0,Calm,Calm,-,N/A,,Clear,0,2013-08-05 05:55:00
2:15 AM,-9999,-9999,N/A,30.00,7.0,Calm,Calm,-,N/A,,Clear,0,2013-08-05 06:15:00
2:35 AM,-9999,-9999,N/A,30.00,7.0,Calm,Calm,-,N/A,,Clear,0,2013-08-05 06:35:00
2:55 AM,-9999,-9999,N/A,30.00,7.0,Calm,Calm,-,N/A,,Clear,0,2013-08-05 06:55:00
3:15 AM,-9999,-9999,N/A,30.00,7.0,Calm,Calm,-,N/A,,Clear,0,2013-08-05 07:15:00
3:35 AM,-9999,-9999,N/A,30.00,7.0,Calm,Calm,-,N/A,,Clear,0,2013-08-05 07:35:00
3:55 AM,-9999,-9999,N/A,29.99,7.0,Calm,Calm,-,N/A,,Clear,0,2013-08-05 07:55:00
4:15 AM,-9999,-9999,N/A,29.99,5.0,Calm,Calm,-,N/A,,Haze,0,2013-08-05 08:15:00
4:35 AM,-9999,-9999,N/A,29.99,5.0,Calm,Calm,-,N/A,,Haze,0,2013-08-05 08:35:00
4:55 AM,-9999,-9999,N/A,29.99,4.0,Calm,Calm,-,N/A,,Haze,0,2013-08-05 08:55:00
5:15 AM,-9999,-9999,N/A,29.98,3.0,Calm,Calm,-,N/A,,Clear,0,2013-08-05 09:15:00
5:35 AM,-9999,-9999,N/A,29.98,3.0,Calm,Calm,-,N/A,,Clear,0,2013-08-05 09:35:00
5:55 AM,-9999,-9999,N/A,29.99,4.0,Calm,Calm,-,N/A,,Haze,0,2013-08-05 09:55:00
6:15 AM,-9999,-9999,N/A,29.99,4.0,Calm,Calm,-,N/A,,Haze,0,2013-08-05 10:15:00
6:35 AM,-9999,-9999,N/A,30.00,5.0,Calm,Calm,-,N/A,,Haze,0,2013-08-05 10:35:00
6:55 AM,-9999,-9999,N/A,30.00,4.0,Calm,Calm,-,N/A,,Haze,0,2013-08-05 10:55:00
7:15 AM,-9999,-9999,N/A,30.00,3.0,Calm,Calm,-,N/A,,Clear,0,2013-08-05 11:15:00
7:35 AM,-9999,-9999,N/A,30.01,3.0,Calm,Calm,-,N/A,,Clear,0,2013-08-05 11:35:00
7:55 AM,-9999,-9999,N/A,30.01,5.0,Calm,Calm,-,N/A,,Haze,0,2013-08-05 11:55:00
8:15 AM,-9999,-9999,N/A,30.02,5.0,Calm,Calm,-,N/A,,Haze,0,2013-08-05 12:15:00
8:35 AM,-9999,-9999,N/A,30.02,7.0,Calm,Calm,-,N/A,,Clear,0,2013-08-05 12:35:00
8:55 AM,-9999,-9999,N/A,30.02,10.0,Calm,Calm,-,N/A,,Clear,0,2013-08-05 12:55:00
9:15 AM,-9999,-9999,N/A,30.03,10.0,Calm,Calm,-,N/A,,Clear,0,2013-08-05 13:15:00
9:35 AM,-9999,-9999,N/A,30.03,10.0,Calm,Calm,-,N/A,,Clear,0,2013-08-05 13:35:00
9:55 AM,-9999,-9999,N/A,30.03,10.0,Calm,Calm,-,N/A,,Clear,0,2013-08-05 13:55:00
10:15 AM,-9999,-9999,N/A,30.03,10.0,Calm,Calm,-,N/A,,Clear,0,2013-08-05 14:15:00
10:35 AM,-9999,-9999,N/A,30.04,10.0,Calm,Calm,-,N/A,,Clear,0,2013-08-05 14:35:00
10:55 AM,-9999,-9999,N/A,30.04,10.0,Calm,Calm,-,N/A,,Clear,0,2013-08-05 14:55:00
11:15 AM,-9999,-9999,N/A,30.04,10.0,Calm,Calm,-,N/A,,Clear,0,2013-08-05 15:15:00
11:35 AM,-9999,-9999,N/A,30.04,10.0,Calm,Calm,-,N/A,,Clear,0,2013-08-05 15:35:00
11:55 AM,-9999,-9999,N/A,30.04,10.0,NNW,4.6,-,N/A,,Clear,330,2013-08-05 15:55:00
12:15 PM,-9999,-9999,N/A,30.03,10.0,NNW,5.8,-,N/A,,Clear,330,2013-08-05 16:15:00
12:35 PM,-9999,-9999,N/A,30.03,10.0,NNW,6.9,-,N/A,,Scattered Clouds,340,2013-08-05 16:35:00
12:55 PM,-9999,-9999,N/A,30.02,10.0,WNW,3.5,-,N/A,,Scattered Clouds,300,2013-08-05 16:55:00
1:15 PM,-9999,-9999,N/A,30.01,10.0,Calm,Calm,-,N/A,,Scattered Clouds,0,2013-08-05 17:15:00
1:35 PM,-9999,-9999,N/A,30.00,10.0,North,5.8,-,N/A,,Clear,360,2013-08-05 17:35:00
1:55 PM,-9999,-9999,N/A,30.00,10.0,NNW,5.8,-,N/A,,Scattered Clouds,340,2013-08-05 17:55:00
2:15 PM,-9999,-9999,N/A,29.99,10.0,WNW,6.9,-,N/A,,Scattered Clouds,290,2013-08-05 18:15:00
2:35 PM,-9999,-9999,N/A,29.99,10.0,North,6.9,-,N/A,,Clear,10,2013-08-05 18:35:00
2:55 PM,-9999,-9999,N/A,29.98,10.0,North,5.8,-,N/A,,Scattered Clouds,10,2013-08-05 18:55:00
3:15 PM,-9999,-9999,N/A,29.98,10.0,North,6.9,-,N/A,,Scattered Clouds,350,2013-08-05 19:15:00
3:35 PM,-9999,-9999,N/A,29.98,10.0,North,6.9,-,N/A,,Clear,360,2013-08-05 19:35:00
4:15 PM,96.8,77.0,53,29.97,-9999.0,NNW,6.9,-,N/A,,Unknown,330,2013-08-05 20:15:00
4:35 PM,95.0,75.2,53,29.97,10.0,North,4.6,-,N/A,,Clear,360,2013-08-05 20:35:00
4:55 PM,95.0,73.4,49,29.97,10.0,NNW,5.8,-,N/A,,Clear,340,2013-08-05 20:55:00
5:15 PM,95.0,75.2,53,29.96,10.0,NNW,4.6,-,N/A,,Clear,330,2013-08-05 21:15:00
5:35 PM,95.0,77.0,56,29.96,10.0,Calm,Calm,-,N/A,,Clear,0,2013-08-05 21:35:00
5:55 PM,95.0,77.0,56,29.95,10.0,North,3.5,-,N/A,,Clear,360,2013-08-05 21:55:00
6:15 PM,95.0,77.0,56,29.96,10.0,North,3.5,-,N/A,,Clear,350,2013-08-05 22:15:00
6:35 PM,93.2,77.0,59,29.96,10.0,North,3.5,-,N/A,,Clear,360,2013-08-05 22:35:00
6:55 PM,91.4,78.8,66,29.95,10.0,Calm,Calm,-,N/A,,Clear,0,2013-08-05 22:55:00
7:15 PM,89.6,78.8,70,29.95,10.0,Calm,Calm,-,N/A,,Clear,0,2013-08-05 23:15:00
7:35 PM,89.6,78.8,70,29.96,10.0,Calm,Calm,-,N/A,,Clear,0,2013-08-05 23:35:00
7:55 PM,89.6,78.8,70,29.97,10.0,Calm,Calm,-,N/A,,Clear,0,2013-08-05 23:55:00
8:15 PM,87.8,78.8,75,29.98,10.0,Calm,Calm,-,N/A,,Clear,0,2013-08-06 00:15:00
8:35 PM,87.8,78.8,75,30.00,10.0,Calm,Calm,-,N/A,,Clear,0,2013-08-06 00:35:00
8:55 PM,86.0,78.8,79,30.00,10.0,Calm,Calm,-,N/A,,Clear,0,2013-08-06 00:55:00
9:15 PM,86.0,78.8,79,30.00,10.0,Calm,Calm,-,N/A,,Clear,0,2013-08-06 01:15:00
9:35 PM,86.0,78.8,79,30.01,10.0,Calm,Calm,-,N/A,,Clear,0,2013-08-06 01:35:00
9:55 PM,82.4,78.8,89,30.00,10.0,Calm,Calm,-,N/A,,Clear,0,2013-08-06 01:55:00
10:15 PM,82.4,78.8,89,29.99,10.0,Calm,Calm,-,N/A,,Clear,0,2013-08-06 02:15:00
10:35 PM,80.6,78.8,94,29.99,10.0,Calm,Calm,-,N/A,,Clear,0,2013-08-06 02:35:00
10:55 PM,80.6,77.0,89,29.99,10.0,Calm,Calm,-,N/A,,Clear,0,2013-08-06 02:55:00
11:15 PM,80.6,78.8,94,29.98,10.0,Calm,Calm,-,N/A,,Clear,0,2013-08-06 03:15:00
11:35 PM,78.8,77.0,94,29.98,10.0,Calm,Calm,-,N/A,,Clear,0,2013-08-06 03:35:00
11:55 PM,78.8,77.0,94,29.98,10.0,Calm,Calm,-,N/A,,Clear,0,2013-08-06 03:55:00